Natchez, MS

5:17 AM CDT on July 23, 2017 (GMT -0500)
Hardy-Anders-Adams County

Weather History for KHEZ - January, 2013

Change the Weather History Date:

Wednesday, January 30, 2013

  Actual Average Record
Temperature  
Mean Temperature 56 °F -  
Max Temperature 73 °F 62 °F 81 °F (1950)
Min Temperature 37 °F 41 °F 12 °F (1966)
Degree Days  
Heating Degree Days 9    
Growing Degree Days 6 (Base 50)    
Moisture  
Dew Point 40 °F    
Average Humidity 66    
Maximum Humidity 94    
Minimum Humidity 44    
Precipitation  
Precipitation 0.67 in - - ()
Sea Level Pressure  
Sea Level Pressure 29.86 in    
Wind  
Wind Speed 12 mph (West)    
Max Wind Speed 24 mph    
Max Gust Speed 32 mph    
Visibility 10 miles    
Events Thunderstorm    
Averages and records for this station are not official NWS values.
T = Trace of Precipitation, MM = Missing Value Source: NWS Daily Summary

Daily Weather History Graph

Daily Weather History Graph

Search for Another Location

Airport or City:

Trip Planner

Search our weather history database for the weather conditions in past years. The results will help you decide how hot, cold, wet, or windy it might be!

Date:

Astronomy

Jan. 30, 2013 Rise Set
Actual Time 6:59 AM CST 5:38 PM CST
Civil Twilight 6:33 AM CST 6:03 PM CST
Nautical Twilight 6:04 AM CST 6:33 PM CST
Astronomical Twilight 5:35 AM CST 7:01 PM CST
Moon 9:18 PM CST (1/30) 8:44 AM CST (1/30)
Length of Visible Light 11h 30m
Length of Day
10h 39m
Waning Gibbous, 87% of the Moon is Illuminated
Jan 30
Waning Gibbous
Feb 3
Last Quarter
Feb 10
New
Feb 17
First Quarter
Feb 25
Full

Hourly Weather History & Observations

Time (CST) Temp. Windchill Dew Point Humidity Pressure Visibility Wind Dir Wind Speed Gust Speed Precip Events Conditions
12:35 AM 73.4 °F - 64.4 °F 73% 29.70 in 10.0 mi South 15.0 mph 25.3 mph N/A   Overcast
12:55 AM 73.4 °F - 64.4 °F 73% 29.68 in 10.0 mi South 13.8 mph 26.5 mph N/A   Mostly Cloudy
1:15 AM 73.4 °F - 64.4 °F 73% 29.67 in 10.0 mi South 15.0 mph 23.0 mph N/A   Mostly Cloudy
1:35 AM 73.4 °F - 64.4 °F 73% 29.68 in 10.0 mi South 19.6 mph 28.8 mph N/A   Overcast
1:55 AM 73.4 °F - 64.4 °F 73% 29.68 in 10.0 mi SSW 18.4 mph 28.8 mph N/A   Overcast
2:15 AM 71.6 °F - 64.4 °F 78% 29.69 in 9.0 mi West 19.6 mph 29.9 mph 0.05 in   Overcast
2:55 AM 55.4 °F - 51.8 °F 88% 29.74 in 10.0 mi NW 17.3 mph 21.9 mph 0.29 in   Overcast
3:15 AM 53.6 °F - 48.2 °F 82% 29.73 in 10.0 mi NW 10.4 mph - 0.04 in   Mostly Cloudy
3:35 AM 53.6 °F - 50.0 °F 88% 29.73 in 7.0 mi NW 8.1 mph - 0.25 in Thunderstorm Overcast
3:55 AM 53.6 °F - 50.0 °F 88% 29.72 in 10.0 mi NW 6.9 mph - 0.34 in Thunderstorm Mostly Cloudy
4:15 AM 53.6 °F - 48.2 °F 82% 29.71 in 10.0 mi Calm Calm - 0.03 in   Mostly Cloudy
4:35 AM 53.6 °F - 48.2 °F 82% 29.68 in 10.0 mi Calm Calm - 0.03 in   Partly Cloudy
4:55 AM 51.8 °F - 48.2 °F 88% 29.69 in 8.0 mi SSE 4.6 mph - 0.04 in   Partly Cloudy
5:15 AM 53.6 °F - 50.0 °F 88% 29.70 in 10.0 mi Calm Calm - N/A   Mostly Cloudy
5:35 AM 53.6 °F - 50.0 °F 88% 29.70 in 10.0 mi Calm Calm - N/A   Overcast
5:55 AM 53.6 °F - 50.0 °F 88% 29.70 in 10.0 mi SSW 4.6 mph - N/A   Overcast
6:15 AM 53.6 °F - 50.0 °F 88% 29.69 in 10.0 mi Calm Calm - N/A   Overcast
6:35 AM 53.6 °F - 51.8 °F 94% 29.71 in 10.0 mi South 5.8 mph - N/A   Overcast
6:55 AM 53.6 °F - 50.0 °F 88% 29.72 in 10.0 mi SW 5.8 mph - N/A   Overcast
7:15 AM 53.6 °F - 50.0 °F 88% 29.72 in 10.0 mi WSW 6.9 mph - N/A   Overcast
7:35 AM 53.6 °F - 50.0 °F 88% 29.73 in 10.0 mi West 8.1 mph - N/A   Overcast
7:55 AM 53.6 °F - 50.0 °F 88% 29.73 in 10.0 mi WSW 6.9 mph - N/A   Overcast
8:15 AM 53.6 °F - 50.0 °F 88% 29.75 in 10.0 mi WSW 9.2 mph - N/A   Overcast
8:35 AM 55.4 °F - 51.8 °F 88% 29.74 in 10.0 mi West 9.2 mph - N/A   Overcast
8:55 AM 55.4 °F - 51.8 °F 88% 29.76 in 10.0 mi WSW 8.1 mph - N/A   Overcast
9:15 AM 55.4 °F - 51.8 °F 88% 29.76 in 10.0 mi WSW 10.4 mph 16.1 mph N/A   Overcast
9:35 AM 55.4 °F - 48.2 °F 77% 29.77 in 10.0 mi West 9.2 mph 17.3 mph N/A   Overcast
9:55 AM 55.4 °F - 46.4 °F 72% 29.77 in 10.0 mi West 8.1 mph - N/A   Overcast
10:15 AM 55.4 °F - 42.8 °F 63% 29.78 in 10.0 mi West 15.0 mph - N/A   Overcast
10:35 AM 57.2 °F - 42.8 °F 59% 29.78 in 10.0 mi West 10.4 mph - N/A   Overcast
10:55 AM 55.4 °F - 39.2 °F 54% 29.79 in 10.0 mi West 18.4 mph 23.0 mph N/A   Overcast
11:15 AM 55.4 °F - 37.4 °F 51% 29.80 in 10.0 mi West 9.2 mph 21.9 mph N/A   Overcast
11:35 AM 55.4 °F - 37.4 °F 51% 29.80 in 10.0 mi West 17.3 mph 23.0 mph N/A   Mostly Cloudy
11:55 AM 55.4 °F - 35.6 °F 47% 29.80 in 10.0 mi West 12.7 mph 23.0 mph N/A   Mostly Cloudy
12:15 PM 55.4 °F - 35.6 °F 47% 29.80 in 10.0 mi West 13.8 mph 25.3 mph N/A   Mostly Cloudy
12:35 PM 55.4 °F - 35.6 °F 47% 29.80 in 10.0 mi West 16.1 mph 23.0 mph N/A   Scattered Clouds
12:55 PM 55.4 °F - 35.6 °F 47% 29.82 in 10.0 mi West 18.4 mph 26.5 mph N/A   Partly Cloudy
1:15 PM 55.4 °F - 33.8 °F 44% 29.84 in 10.0 mi West 12.7 mph 28.8 mph N/A   Partly Cloudy
1:35 PM 53.6 °F - 35.6 °F 51% 29.84 in 10.0 mi WNW 17.3 mph 27.6 mph N/A   Mostly Cloudy
1:55 PM 53.6 °F - 35.6 °F 51% 29.84 in 10.0 mi NW 24.2 mph 31.1 mph N/A   Overcast
2:15 PM 53.6 °F - 35.6 °F 51% 29.86 in 10.0 mi WNW 24.2 mph 27.6 mph N/A   Overcast
2:35 PM 51.8 °F - 33.8 °F 50% 29.87 in 10.0 mi WNW 12.7 mph 32.2 mph N/A   Overcast
2:55 PM 53.6 °F - 35.6 °F 51% 29.87 in 10.0 mi WNW 16.1 mph 32.2 mph N/A   Mostly Cloudy
3:15 PM 53.6 °F - 33.8 °F 47% 29.89 in 10.0 mi WNW 24.2 mph 32.2 mph N/A   Partly Cloudy
3:35 PM 51.8 °F - 33.8 °F 50% 29.91 in 10.0 mi WNW 21.9 mph 31.1 mph N/A   Mostly Cloudy
3:55 PM 51.8 °F - 33.8 °F 50% 29.92 in 10.0 mi WNW 23.0 mph 31.1 mph N/A   Overcast
4:15 PM 50.0 °F - 30.2 °F 47% 29.94 in 10.0 mi WNW 20.7 mph 29.9 mph N/A   Scattered Clouds
4:35 PM 50.0 °F - 30.2 °F 47% 29.95 in 10.0 mi WNW 23.0 mph 28.8 mph N/A   Mostly Cloudy
4:55 PM 48.2 °F - 30.2 °F 50% 29.97 in 10.0 mi WNW 20.7 mph 26.5 mph N/A   Scattered Clouds
5:15 PM 48.2 °F - 28.4 °F 46% 29.98 in 10.0 mi WNW 17.3 mph 23.0 mph N/A   Clear
5:35 PM 46.4 °F 41.1 °F 28.4 °F 50% 30.00 in 10.0 mi WNW 11.5 mph - N/A   Clear
5:55 PM 44.6 °F 39.2 °F 28.4 °F 53% 30.01 in 10.0 mi NW 10.4 mph - N/A   Clear
6:15 PM 44.6 °F 39.2 °F 28.4 °F 53% 30.02 in 10.0 mi NW 10.4 mph - N/A   Clear
6:35 PM 44.6 °F 40.2 °F 28.4 °F 53% 30.03 in 10.0 mi NW 8.1 mph - N/A   Clear
6:55 PM 44.6 °F 39.7 °F 28.4 °F 53% 30.05 in 10.0 mi WNW 9.2 mph - N/A   Clear
7:35 PM 44.6 °F 39.2 °F 28.4 °F 53% 30.08 in 10.0 mi WNW 10.4 mph - N/A   Clear
7:55 PM 42.8 °F 38.0 °F 28.4 °F 57% 30.08 in 10.0 mi NW 8.1 mph - N/A   Clear
8:15 PM 42.8 °F 38.6 °F 28.4 °F 57% 30.09 in 10.0 mi NW 6.9 mph - N/A   Clear
8:35 PM 42.8 °F 39.3 °F 28.4 °F 57% 30.09 in 10.0 mi NW 5.8 mph - N/A   Clear
8:55 PM 42.8 °F 38.0 °F 28.4 °F 57% 30.10 in 10.0 mi NW 8.1 mph - N/A   Clear
9:15 PM 42.8 °F 38.6 °F 28.4 °F 57% 30.10 in 10.0 mi NW 6.9 mph - N/A   Clear
9:35 PM 41.0 °F 37.1 °F 28.4 °F 61% 30.12 in 10.0 mi NW 5.8 mph - N/A   Clear
9:55 PM 41.0 °F 36.4 °F 28.4 °F 61% 30.12 in 10.0 mi NW 6.9 mph - N/A   Clear
10:15 PM 41.0 °F 37.1 °F 26.6 °F 57% 30.14 in 10.0 mi West 5.8 mph - N/A   Clear
10:35 PM 39.2 °F 35.9 °F 26.6 °F 61% 30.14 in 10.0 mi West 4.6 mph - N/A   Clear
10:55 PM 39.2 °F 35.9 °F 28.4 °F 65% 30.14 in 10.0 mi NNW 4.6 mph - N/A   Clear
11:15 PM 39.2 °F 37.0 °F 26.6 °F 61% 30.14 in 10.0 mi WNW 3.5 mph - N/A   Clear
11:35 PM 39.2 °F 37.0 °F 28.4 °F 65% 30.15 in 10.0 mi West 3.5 mph - N/A   Clear
11:55 PM 37.4 °F 34.9 °F 28.4 °F 70% 30.15 in 10.0 mi West 3.5 mph - N/A   Clear